• In Germany
  • List of Countries
  • For 7 days
  • Water Temperature
  • Satellite Maps
  • Weather Map
  • Weather Widgets
  • user-avatar
    Login

    Hourly Weather Cipikan

    Today, 24 September, Monday

    Time Temperature Precipitation Wind Pressure Humidity
    00:00 +3°C° 0 mm 0 mps 671 mmHg 68%
    01:00 +2°C° 0 mm 0 mps 671 mmHg 69%
    02:00 +2°C° 0 mm 0 mps 671 mmHg 69%
    03:00 +2°C° 0 mm 0 mps 671 mmHg 70%
    04:00 +2°C° 0 mm 0 mps 671 mmHg 72%
    05:00 +3°C° 0 mm 1 mps 671 mmHg 73%
    06:00 +4°C° 0 mm 1 mps 671 mmHg 70%
    07:00 +5°C° 0 mm 1 mps 671 mmHg 66%
    08:00 +6°C° 0 mm 1 mps 672 mmHg 64%
    09:00 +8°C° 0 mm 1 mps 672 mmHg 61%
    10:00 +9°C° 0 mm 1 mps 671 mmHg 59%
    11:00 +9°C° 0 mm 2 mps 671 mmHg 56%
    12:00 +10°C° 0 mm 2 mps 671 mmHg 54%
    13:00 +12°C° 0 mm 2 mps 671 mmHg 52%
    14:00 +12°C° 0 mm 2 mps 671 mmHg 49%
    15:00 +12°C° 0 mm 2 mps 671 mmHg 53%
    16:00 +12°C° 0 mm 1 mps 670 mmHg 56%
    17:00 +11°C° 0 mm 1 mps 670 mmHg 59%
    18:00 +10°C° 0 mm 1 mps 670 mmHg 65%
    19:00 +8°C° 0 mm 1 mps 670 mmHg 71%
    20:00 +6°C° 0 mm 1 mps 669 mmHg 76%
    21:00 +5°C° 0 mm 1 mps 669 mmHg 79%
    22:00 +5°C° 0 mm 1 mps 670 mmHg 81%
    23:00 +4°C° 0 mm 1 mps 670 mmHg 83%

    Tomorrow, 25 September, Tuesday

    Time Temperature Precipitation Wind Pressure Humidity
    00:00 +4°C° 0 mm 1 mps 670 mmHg 84%
    01:00 +4°C° 0 mm 1 mps 670 mmHg 84%
    02:00 +4°C° 0 mm 1 mps 670 mmHg 85%
    03:00 +3°C° 0 mm 1 mps 669 mmHg 85%
    04:00 +2°C° 0 mm 0 mps 669 mmHg 86%
    05:00 +2°C° 0 mm 0 mps 669 mmHg 86%
    06:00 +3°C° 0 mm 0 mps 670 mmHg 81%
    07:00 +5°C° 0 mm 1 mps 670 mmHg 77%
    08:00 +7°C° 0 mm 1 mps 671 mmHg 72%
    09:00 +8°C° 0 mm 1 mps 671 mmHg 67%
    10:00 +9°C° 0 mm 1 mps 670 mmHg 62%
    11:00 +11°C° 0 mm 1 mps 670 mmHg 57%
    12:00 +11°C° 0 mm 1 mps 670 mmHg 54%
    13:00 +12°C° 0 mm 2 mps 670 mmHg 51%
    14:00 +13°C° 0 mm 2 mps 670 mmHg 48%
    15:00 +13°C° 0 mm 2 mps 670 mmHg 51%
    16:00 +12°C° 0 mm 1 mps 670 mmHg 54%
    17:00 +12°C° 0 mm 1 mps 670 mmHg 57%
    18:00 +10°C° 0 mm 1 mps 669 mmHg 62%
    19:00 +8°C° 0 mm 1 mps 669 mmHg 68%
    20:00 +7°C° 0 mm 1 mps 669 mmHg 74%
    21:00 +6°C° 0 mm 1 mps 669 mmHg 76%
    22:00 +6°C° 0 mm 1 mps 669 mmHg 78%
    23:00 +5°C° 0 mm 1 mps 669 mmHg 80%

    Day after tomorrow, 26 September, Wednesday

    Time Temperature Precipitation Wind Pressure Humidity
    00:00 +5°C° 0 mm 1 mps 669 mmHg 82%
    01:00 +5°C° 0 mm 1 mps 669 mmHg 83%
    02:00 +4°C° 0 mm 1 mps 668 mmHg 84%
    03:00 +4°C° 0 mm 1 mps 668 mmHg 85%
    04:00 +4°C° 0 mm 1 mps 668 mmHg 86%
    05:00 +4°C° 0 mm 1 mps 668 mmHg 87%
    06:00 +5°C° 0 mm 1 mps 668 mmHg 83%
    07:00 +6°C° 0 mm 1 mps 669 mmHg 80%
    08:00 +7°C° 0 mm 1 mps 669 mmHg 77%
    09:00 +7°C° 0 mm 2 mps 669 mmHg 72%
    10:00 +9°C° 0 mm 2 mps 668 mmHg 66%
    11:00 +10°C° 0 mm 2 mps 668 mmHg 61%
    12:00 +11°C° 0 mm 3 mps 668 mmHg 58%
    13:00 +12°C° 0 mm 3 mps 668 mmHg 56%
    14:00 +12°C° 0 mm 3 mps 667 mmHg 53%
    15:00 +12°C° 0 mm 3 mps 667 mmHg 56%
    16:00 +12°C° 0 mm 3 mps 667 mmHg 59%
    17:00 +12°C° 0 mm 2 mps 666 mmHg 63%
    18:00 +9°C° 0 mm 2 mps 666 mmHg 70%
    19:00 +8°C° 0 mm 2 mps 666 mmHg 77%
    20:00 +6°C° 0 mm 2 mps 666 mmHg 84%
    21:00 +6°C° 0 mm 2 mps 666 mmHg 86%
    22:00 +6°C° 0 mm 1 mps 666 mmHg 88%
    23:00 +6°C° 0 mm 1 mps 666 mmHg 89%

    27 September, Thursday

    Time Temperature Precipitation Wind Pressure Humidity
    00:00 +6°C° 0.2 mm 1 mps 665 mmHg 90%
    01:00 +6°C° 0.2 mm 1 mps 665 mmHg 91%
    02:00 +6°C° 0.2 mm 1 mps 665 mmHg 91%
    03:00 +6°C° 0.3 mm 1 mps 665 mmHg 92%
    04:00 +6°C° 0.3 mm 1 mps 665 mmHg 93%
    05:00 +6°C° 0.3 mm 1 mps 665 mmHg 94%
    06:00 +6°C° 0.3 mm 1 mps 665 mmHg 93%
    07:00 +7°C° 0.3 mm 1 mps 665 mmHg 93%
    08:00 +6°C° 0.3 mm 2 mps 665 mmHg 93%
    09:00 +6°C° 1 mm 2 mps 665 mmHg 92%
    10:00 +7°C° 1 mm 3 mps 665 mmHg 91%
    11:00 +7°C° 1 mm 3 mps 665 mmHg 90%
    12:00 +7°C° 1.6 mm 3 mps 665 mmHg 91%
    13:00 +7°C° 1.6 mm 3 mps 665 mmHg 91%
    14:00 +5°C° 1.6 mm 3 mps 665 mmHg 92%
    15:00 +7°C° 1.2 mm 3 mps 665 mmHg 91%
    16:00 +7°C° 1.2 mm 2 mps 666 mmHg 91%
    17:00 +7°C° 1.2 mm 2 mps 666 mmHg 91%
    18:00 +6°C° 1 mm 2 mps 666 mmHg 92%
    19:00 +6°C° 1 mm 2 mps 667 mmHg 93%
    20:00 +6°C° 1 mm 2 mps 667 mmHg 94%
    21:00 +6°C° 0.5 mm 2 mps 667 mmHg 93%
    22:00 +6°C° 0.5 mm 2 mps 668 mmHg 93%
    23:00 +6°C° 0.5 mm 2 mps 668 mmHg 93%

    28 September, Friday

    Time Temperature Precipitation Wind Pressure Humidity
    00:00 +4°C° 0 mm 3 mps 668 mmHg 93%
    01:00 +4°C° 0 mm 3 mps 668 mmHg 92%
    02:00 +4°C° 0 mm 3 mps 668 mmHg 92%
    03:00 +4°C° 0 mm 3 mps 668 mmHg 91%
    04:00 +4°C° 0 mm 3 mps 668 mmHg 91%
    05:00 +4°C° 0 mm 4 mps 669 mmHg 91%
    06:00 +4°C° 0 mm 4 mps 669 mmHg 90%
    07:00 +5°C° 0 mm 4 mps 670 mmHg 88%
    08:00 +5°C° 0 mm 4 mps 670 mmHg 87%
    09:00 +6°C° 0 mm 5 mps 670 mmHg 81%
    10:00 +7°C° 0 mm 6 mps 671 mmHg 75%
    11:00 +9°C° 0 mm 7 mps 671 mmHg 70%
    12:00 +9°C° 0 mm 7 mps 671 mmHg 67%
    13:00 +10°C° 0 mm 7 mps 671 mmHg 65%
    14:00 +10°C° 0 mm 7 mps 671 mmHg 63%
    15:00 +10°C° 0 mm 6 mps 671 mmHg 64%
    16:00 +9°C° 0 mm 6 mps 671 mmHg 65%
    17:00 +9°C° 0 mm 5 mps 671 mmHg 66%
    18:00 +8°C° 0 mm 5 mps 671 mmHg 69%
    19:00 +7°C° 0 mm 4 mps 672 mmHg 73%
    20:00 +6°C° 0 mm 4 mps 672 mmHg 76%
    21:00 +5°C° 0 mm 3 mps 672 mmHg 78%
    22:00 +5°C° 0 mm 3 mps 672 mmHg 80%
    23:00 +4°C° 0 mm 3 mps 672 mmHg 81%

    29 September, Saturday

    Time Temperature Precipitation Wind Pressure Humidity
    00:00 +4°C° 0 mm 3 mps 672 mmHg 82%
    01:00 +5°C° 0 mm 2 mps 672 mmHg 83%
    02:00 +5°C° 0 mm 2 mps 672 mmHg 85%
    03:00 +4°C° 0 mm 2 mps 673 mmHg 85%
    04:00 +4°C° 0 mm 2 mps 673 mmHg 85%
    05:00 +4°C° 0 mm 2 mps 673 mmHg 85%
    06:00 +5°C° 0 mm 2 mps 673 mmHg 82%
    07:00 +6°C° 0 mm 1 mps 674 mmHg 80%
    08:00 +7°C° 0 mm 1 mps 674 mmHg 78%
    09:00 +9°C° 0 mm 1 mps 674 mmHg 75%
    10:00 +10°C° 0 mm 1 mps 674 mmHg 71%
    11:00 +11°C° 0 mm 1 mps 674 mmHg 68%
    12:00 +12°C° 0 mm 1 mps 674 mmHg 65%
    13:00 +12°C° 0 mm 1 mps 674 mmHg 63%
    14:00 +12°C° 0 mm 0 mps 674 mmHg 60%
    15:00 +12°C° 0 mm 1 mps 674 mmHg 61%
    16:00 +12°C° 0 mm 1 mps 673 mmHg 61%
    17:00 +12°C° 0 mm 1 mps 673 mmHg 62%
    18:00 +10°C° 0 mm 1 mps 673 mmHg 66%
    19:00 +9°C° 0 mm 1 mps 673 mmHg 71%
    20:00 +7°C° 0 mm 1 mps 672 mmHg 75%
    21:00 +7°C° 0 mm 1 mps 672 mmHg 77%
    22:00 +6°C° 0 mm 1 mps 672 mmHg 79%
    23:00 +6°C° 0 mm 1 mps 672 mmHg 80%
    Show more